Location: Bonny Doon Airfield
(37.0704°N, 122.1252°W)
Time: 02:32:34
(UTC-08:00)

OTV 5 (USA 277) - Pass Details

Date: 14 October 2017
Orbit: 404 x 417 km, 43.0° (Epoch: 07 September)

Event Time Altitude Azimuth Distance (km) Brightness Sun altitude
Rises 19:38:26 0° 278° (W) 2,350 ? -13.9°
Reaches altitude 10° 19:40:42 10° 289° (WNW) 1,489 ? -14.4°
Maximum altitude 19:43:43 30° 353° (N) 772 ? -15.0°
Enters shadow 19:45:15 21° 38° (NE) 1,004 ? -15.3°
